Moline, IL

5:05 AM CDT on May 26, 2017 (GMT -0500)
Quad-City International

Weather History for KMLI - August, 2013

Change the Weather History Date:

Saturday, August 3, 2013

  Actual Average Record
Temperature  
Mean Temperature 71 °F 75 °F  
Max Temperature 81 °F 85 °F 103 °F (1930)
Min Temperature 60 °F 65 °F 48 °F (1950)
Degree Days  
Heating Degree Days 0 0  
Month to date heating degree days 0 0  
Since 1 June heating degree days 34 21  
Since 1 July heating degree days 7 2  
Cooling Degree Days 6 10  
Month to date cooling degree days 22 30  
Year to date cooling degree days 573 644  
Since 1 June cooling degree days 483 568  
Growing Degree Days 20 (Base 50)    
Moisture  
Dew Point 56 °F    
Average Humidity 66    
Maximum Humidity 93    
Minimum Humidity 39    
Precipitation  
Precipitation 0.00 in 0.14 in 3.17 in (1965)
Month to date precipitation 0.27 0.41  
Year to date precipitation 32.12 23.05  
Snow  
Snow 0.00 in 0.00 in - ()
Month to date snowfall 0.0 0.0  
Since 1 June snowfall 0.0 0.0  
Since 1 July snowfall 0.0 0.0  
Snow Depth 0.00 in    
Sea Level Pressure  
Sea Level Pressure 30.06 in    
Wind  
Wind Speed 3 mph (NNW)    
Max Wind Speed 13 mph    
Max Gust Speed 16 mph    
Visibility 10 miles    
Events      
T = Trace of Precipitation, MM = Missing Value Source: NWS Daily Summary

Daily Weather History Graph

Daily Weather History Graph

Search for Another Location

Airport or City:

Trip Planner

Search our weather history database for the weather conditions in past years. The results will help you decide how hot, cold, wet, or windy it might be!

Date:

Astronomy

Aug. 03, 2013 Rise Set
Actual Time 5:59 AM CDT 8:16 PM CDT
Civil Twilight 5:28 AM CDT 8:47 PM CDT
Nautical Twilight 4:49 AM CDT 9:25 PM CDT
Astronomical Twilight 4:07 AM CDT 10:07 PM CDT
Moon 3:08 AM CDT (8/3) 5:59 PM CDT (8/3)
Length of Visible Light 15h 19m
Length of Day
14h 17m
Waning Crescent, 9% of the Moon is Illuminated
Aug 3
Waning Crescent
Aug 6
New
Aug 14
First Quarter
Aug 20
Full
Aug 28
Last Quarter

Hourly Weather History & Observations

Time (CDT) Temp. Heat Index Dew Point Humidity Pressure Visibility Wind Dir Wind Speed Gust Speed Precip Events Conditions
12:52 AM 66.9 °F - 63.0 °F 87% 29.99 in 10.0 mi Calm Calm - N/A   Overcast
1:52 AM 64.9 °F - 62.1 °F 90% 30.00 in 10.0 mi Calm Calm - N/A   Mostly Cloudy
2:52 AM 63.0 °F - 60.1 °F 90% 30.00 in 10.0 mi WSW 3.5 mph - N/A   Unknown
3:52 AM 62.1 °F - 60.1 °F 93% 29.99 in 10.0 mi Calm Calm - N/A   Mostly Cloudy
4:52 AM 61.0 °F - 57.9 °F 90% 29.99 in 10.0 mi Calm Calm - N/A   Clear
5:52 AM 60.1 °F - 57.0 °F 90% 30.01 in 10.0 mi Calm Calm - N/A   Clear
6:52 AM 66.0 °F - 55.9 °F 70% 30.03 in 10.0 mi Calm Calm - N/A   Clear
7:52 AM 66.9 °F - 55.9 °F 68% 30.06 in 10.0 mi NNE 6.9 mph - N/A   Clear
8:52 AM 70.0 °F - 57.0 °F 63% 30.06 in 10.0 mi Calm Calm - N/A   Clear
9:52 AM 73.0 °F - 57.9 °F 59% 30.07 in 10.0 mi Calm Calm - N/A   Clear
10:52 AM 75.9 °F - 59.0 °F 56% 30.08 in 10.0 mi Variable 3.5 mph - N/A   Clear
11:52 AM 77.0 °F - 57.0 °F 50% 30.09 in 10.0 mi Variable 3.5 mph - N/A   Clear
12:52 PM 79.0 °F - 54.0 °F 42% 30.09 in 10.0 mi North 6.9 mph - N/A   Clear
1:52 PM 80.1 °F 80.0 °F 54.0 °F 40% 30.09 in 10.0 mi North 8.1 mph - N/A   Clear
2:52 PM 80.1 °F 80.0 °F 54.0 °F 40% 30.08 in 10.0 mi NNW 6.9 mph - N/A   Clear
3:52 PM 80.1 °F 79.9 °F 53.1 °F 39% 30.08 in 10.0 mi NNW 5.8 mph - N/A   Clear
4:52 PM 80.1 °F 79.9 °F 53.1 °F 39% 30.08 in 10.0 mi NE 6.9 mph - N/A   Partly Cloudy
5:52 PM 79.0 °F - 53.1 °F 40% 30.09 in 10.0 mi NW 8.1 mph - N/A   Scattered Clouds
6:52 PM 78.1 °F - 53.1 °F 42% 30.08 in 10.0 mi NNW 5.8 mph - N/A   Clear
7:52 PM 75.0 °F - 54.0 °F 48% 30.09 in 10.0 mi NNW 5.8 mph - N/A   Clear
8:52 PM 73.9 °F - 53.1 °F 48% 30.09 in 10.0 mi NNE 3.5 mph - N/A   Clear
9:52 PM 69.1 °F - 54.0 °F 58% 30.12 in 10.0 mi Calm Calm - N/A   Clear
10:52 PM 63.0 °F - 57.9 °F 84% 30.13 in 10.0 mi Calm Calm - N/A   Clear
11:52 PM 61.0 °F - 57.0 °F 87% 30.14 in 10.0 mi Calm Calm - N/A   Clear